Starlink 30311

operational
NORAD ID: 57637 Int'l Des: 2023-122 Owner: SPXS Country: US Constellation: starlink
LEOCIRCULAR

About Starlink 30311

Description loading...

Live Position

Loading 3D Globe...

Upcoming Passes

Altitude History

Altitude vs Time

uPlot chart will show altitude changes over time

Two-Line Element Set

1 57637U 23122F 26062.16668981 .01039393 00000-0 38417-1 0 9991
2 57637 42.9998 128.8763 0001531 310.6616 89.2072 15.24564756 5760
Epoch: Mar 3, 2026 • Age: 18 hours

Current Status

Altitude 491.8 km
Velocity 7.62 km/s
Sub-Earth Point 39.15°N, 166.72°E
Launch Date Aug 17, 2023
Age 2.5 years
Type internet

Technical Details

Classification Payload
Mass 730.00 kg
Dry Mass 700.00 kg
Total Mass 730.00 kg
Length 0.30 m
Diameter 4.10 m
Span 29.00 m
Shape Box + pan
Manufacturer SPXS
Bus Type Starlink V2M
Phase Status In Orbit
Owner/State SPXS/US

Large Constellations

Loading constellations...